Location: ???????
(55.4362°N, 38.1183°E)
Time: 16:28:24
(UTC+00:00)

FALCON 9 DEB - Pass Details

Date: 01 November 2021
Orbit: 344 x 356 km, 53.0° (Epoch: 29 November)

Event Time Altitude Azimuth Distance (km) Brightness Sun altitude
Rises 14:17:53 0° 214° (SW) 2,160 7.6 -4.7°
Reaches altitude 10° 14:20:16 10° 194° (SSW) 1,326 6.1 -5.0°
Maximum altitude 14:22:22 18° 149° (SSE) 974 4.8 -5.3°
Drops below altitude 10° 14:24:29 10° 103° (ESE) 1,342 5.1 -5.6°
Enters shadow 14:25:23 - 93° (E) 1,634 5.4 -5.7°
